EW4944 Weather Reports


Display with metric or nautical units.
time (UTC)temp
F
wind
direction
speed
MPH
gust
MPH
rain 1hr
in
rain 24hr
in
rain mn
in
humidity
%
barometer
mb
20260509012557 49 0.0 0.0 0.00 0.00 0.00 76 1012.1
20260509012058 49 0.0 0.0 0.00 0.00 0.00 75 1012.2
20260509011558 49 0.0 0.0 0.00 0.00 0.00 74 1012.1
20260509011055 50 0.0 0.0 0.00 0.00 0.00 74 1012.0
20260509010556 50 0.0 0.0 0.00 0.00 0.00 73 1011.8
20260509010104 50 0.0 0.0 0.00 0.00 0.00 73 1011.8
20260509005557 50 0.0 0.0 0.00 0.00 0.00 73 1011.8
20260509005057 50 0.0 0.0 0.00 0.00 0.00 72 1011.7
20260509004621 51 0.0 0.0 0.00 0.00 0.00 71 1011.8
20260509004056 51 0.0 0.0 0.00 0.00 0.00 70 1011.6
20260509003602 51 0.0 0.0 0.00 0.00 0.00 70 1011.6
20260509003057 52 0.0 0.0 0.00 0.00 0.00 69 1011.6
20260509002558 52 0.0 0.0 0.00 0.00 0.00 68 1011.3
20260509002058 53 0.0 0.0 0.00 0.00 0.00 68 1011.2
20260509001557 53 0.0 0.0 0.00 0.00 0.00 67 1011.1
20260509001056 54 0.0 0.0 0.00 0.00 0.00 65 1011.0
20260509000558 55 0.0 0.0 0.00 0.00 0.00 64 1011.1
20260508235558 55 0.0 0.0 0.00 0.00 0.00 63 1011.1
20260508235101 55 0.0 0.0 0.00 0.00 0.00 63 1011.1
20260508234606 56 0.0 0.0 0.00 0.00 0.00 62 1011.0
20260508234058 56 0.0 0.0 0.00 0.00 0.00 62 1011.0
20260508233559 56 0.0 0.0 0.00 0.00 0.00 61 1010.9
20260508233058 56 2.0 7.0 0.00 0.00 0.00 60 1010.8
20260508232558 56 299 2.0 7.0 0.00 0.00 0.00 59 1010.7
20260508232058 56 329 2.0 5.0 0.00 0.00 0.00 58 1010.7
20260508231559 56 281 2.0 9.0 0.00 0.00 0.00 57 1010.7
20260508231057 57 293 2.0 9.0 0.00 0.00 0.00 56 1010.7
20260508230600 57 294 2.0 11.0 0.00 0.00 0.00 56 1010.6
20260508230057 58 294 3.0 11.0 0.00 0.00 0.00 54 1010.6
20260508225558 58 323 3.0 11.0 0.00 0.00 0.00 53 1010.4
20260508225057 58 279 5.0 11.0 0.00 0.00 0.00 54 1010.4
20260508224559 58 300 1.0 9.0 0.00 0.00 0.00 55 1010.4
20260508224100 58 271 3.0 9.0 0.00 0.00 0.00 54 1010.3
20260508223558 59 304 3.0 9.0 0.00 0.00 0.00 54 1010.2
20260508223057 59 273 3.0 11.0 0.00 0.00 0.00 54 1010.2
20260508222557 59 300 5.0 11.0 0.00 0.00 0.00 52 1010.1
20260508222058 59 291 3.0 10.0 0.00 0.00 0.00 52 1010.0
20260508221558 59 307 2.0 13.0 0.00 0.00 0.00 53 1010.1
20260508221058 59 306 3.0 13.0 0.00 0.00 0.00 53 1010.1
20260508220557 59 259 5.0 14.0 0.00 0.00 0.00 52 1010.3
20260508215558 60 269 6.0 14.0 0.00 0.00 0.00 52 1010.3
20260508215058 60 286 4.0 13.0 0.00 0.00 0.00 52 1010.1
20260508214610 60 54 4.0 13.0 0.00 0.00 0.00 51 1010.2
20260508214057 60 275 7.0 13.0 0.00 0.00 0.00 50 1010.3
20260508213558 60 296 5.0 16.0 0.00 0.00 0.00 50 1010.4
20260508213055 60 301 5.0 16.0 0.00 0.00 0.00 51 1010.4
20260508212558 60 318 5.0 14.0 0.00 0.00 0.00 52 1010.3
20260508212059 60 311 6.0 14.0 0.00 0.00 0.00 52 1010.4
20260508211559 60 244 5.0 14.0 0.00 0.00 0.00 53 1010.4
20260508211056 60 290 4.0 13.0 0.00 0.00 0.00 54 1010.4
20260508210600 60 280 3.0 10.0 0.00 0.00 0.00 54 1010.3
20260508205555 60 302 4.0 12.0 0.00 0.00 0.00 53 1010.4
20260508205056 60 265 3.0 12.0 0.00 0.00 0.00 54 1010.4
20260508204605 60 217 4.0 14.0 0.00 0.00 0.00 55 1010.3
20260508204057 60 286 7.0 16.0 0.00 0.00 0.00 53 1010.4
20260508203559 60 220 5.0 16.0 0.00 0.00 0.00 55 1010.2
20260508203104 60 256 6.0 16.0 0.00 0.00 0.00 56 1010.3
20260508202557 59 279 4.0 14.0 0.00 0.00 0.00 57 1010.2
20260508202057 58 270 4.0 12.0 0.00 0.00 0.00 60 1010.3
20260508201559 58 300 5.0 12.0 0.00 0.00 0.00 59 1010.5
20260508201056 58 269 4.0 12.0 0.00 0.00 0.00 61 1010.6
20260508200557 59 322 5.0 16.0 0.00 0.00 0.00 59 1010.7
20260508200106 59 290 5.0 17.0 0.00 0.00 0.00 59 1010.7
20260508195557 58 281 9.0 23.0 0.00 0.00 0.00 57 1010.8
20260508195058 58 269 6.0 23.0 0.00 0.00 0.00 57 1010.8
20260508194559 59 288 6.0 17.0 0.00 0.00 0.00 53 1010.7
20260508194055 60 45 6.0 16.0 0.00 0.00 0.00 55 1010.6
20260508193558 61 280 7.0 16.0 0.00 0.00 0.00 52 1010.7
20260508193113 61 332 7.0 19.0 0.00 0.00 0.00 54 1010.5
20260508192557 62 271 6.0 19.0 0.00 0.00 0.00 52 1010.4
20260508192059 62 323 6.0 20.0 0.00 0.00 0.00 53 1010.4
20260508191602 61 287 9.0 20.0 0.00 0.00 0.00 55 1010.2
20260508191059 61 265 7.0 15.0 0.00 0.00 0.00 50 1010.0
20260508190557 61 291 7.0 14.0 0.00 0.00 0.00 51 1010.2
20260508190108 61 310 4.0 13.0 0.00 0.00 0.00 54 1010.1
20260508185600 60 287 5.0 16.0 0.00 0.00 0.00 50 1010.0
20260508185056 61 262 6.0 16.0 0.00 0.00 0.00 50 1010.0
20260508184609 62 231 5.0 12.0 0.00 0.00 0.00 48 1010.0
20260508184056 63 302 5.0 11.0 0.00 0.00 0.00 47 1009.9
20260508183556 63 248 6.0 11.0 0.00 0.00 0.00 50 1009.9
20260508183114 62 261 4.0 9.0 0.00 0.00 0.00 54 1009.9
20260508182556 62 294 2.0 11.0 0.00 0.00 0.00 52 1010.1
20260508182056 62 238 3.0 17.0 0.00 0.00 0.00 51 1010.2
20260508181604 62 261 7.0 17.0 0.00 0.00 0.00 50 1010.3
20260508181059 61 278 5.0 14.0 0.00 0.00 0.00 53 1010.4
20260508180558 61 269 6.0 15.0 0.00 0.00 0.00 52 1010.3
20260508180119 61 275 5.0 16.0 0.00 0.00 0.00 52 1010.5
20260508175559 60 289 7.0 16.0 0.00 0.00 0.00 53 1010.6
20260508175057 59 289 7.0 16.0 0.00 0.00 0.00 54 1010.6
20260508174613 59 271 5.0 15.0 0.00 0.00 0.00 51 1010.4
20260508174057 59 234 5.0 14.0 0.00 0.00 0.00 49 1010.6
20260508173555 59 290 5.0 12.0 0.00 0.00 0.00 51 1010.1
20260508173058 59 306 4.0 12.0 0.00 0.00 0.00 50 1010.3
20260508172554 60 236 3.0 12.0 0.00 0.00 0.00 54 1010.3
20260508172057 60 196 5.0 12.0 0.00 0.00 0.00 50 1010.3
20260508171601 62 183 2.0 8.0 0.00 0.00 0.00 49 1010.3
20260508171100 61 303 3.0 12.0 0.00 0.00 0.00 47 1010.2
20260508170558 60 328 3.0 17.0 0.00 0.00 0.00 48 1010.4
20260508170106 60 295 4.0 17.0 0.00 0.00 0.00 47 1010.4
20260508165557 62 244 7.0 14.0 0.00 0.00 0.00 45 1010.4
20260508165058 63 311 3.0 20.0 0.00 0.00 0.00 49 1010.3
20260508164559 62 310 5.0 20.0 0.00 0.00 0.00 47 1010.3
20260508164058 61 194 9.0 17.0 0.00 0.00 0.00 49 1010.3
20260508163601 62 213 3.0 14.0 0.00 0.00 0.00 49 1010.3
20260508163057 62 280 5.0 14.0 0.00 0.00 0.00 47 1010.3
20260508162558 63 215 3.0 14.0 0.00 0.00 0.00 45 1010.3
20260508162058 62 297 6.0 14.0 0.00 0.00 0.00 48 1010.4
20260508161602 60 242 6.0 14.0 0.00 0.00 0.00 45 1010.5
20260508161058 61 263 6.0 11.0 0.00 0.00 0.00 44 1010.4
20260508160555 63 254 4.0 16.0 0.00 0.00 0.00 46 1010.6
20260508160058 61 306 7.0 16.0 0.00 0.00 0.00 47 1010.7
20260508155557 62 315 4.0 10.0 0.00 0.00 0.00 46 1010.6
20260508155054 63 275 5.0 12.0 0.00 0.00 0.00 44 1010.6
20260508154557 63 300 5.0 12.0 0.00 0.00 0.00 47 1010.8
20260508154057 62 272 6.0 13.0 0.00 0.00 0.00 49 1010.8
20260508153557 62 281 6.0 14.0 0.00 0.00 0.00 45 1010.7
20260508153059 62 283 5.0 14.0 0.00 0.00 0.00 49 1010.7
20260508152557 61 234 5.0 14.0 0.00 0.00 0.00 50 1010.8
20260508152057 59 281 4.0 14.0 0.00 0.00 0.00 53 1010.8
20260508151555 61 278 3.0 10.0 0.00 0.00 0.00 46 1010.8
20260508151058 62 284 3.0 13.0 0.00 0.00 0.00 54 1010.9
20260508150557 62 286 3.0 13.0 0.00 0.00 0.00 49 1010.9
20260508150056 62 270 3.0 10.0 0.00 0.00 0.00 47 1010.9
20260508145558 63 302 4.0 9.0 0.00 0.00 0.00 50 1010.8
20260508145057 62 346 2.0 10.0 0.00 0.00 0.00 53 1010.9
20260508144604 60 332 4.0 13.0 0.00 0.00 0.00 54 1011.0
20260508144059 60 292 6.0 13.0 0.00 0.00 0.00 50 1011.0
20260508143557 60 189 3.0 9.0 0.00 0.00 0.00 52 1011.0
20260508143100 61 283 4.0 10.0 0.00 0.00 0.00 50 1010.9
20260508142554 60 204 5.0 10.0 0.00 0.00 0.00 50 1010.9
20260508142057 60 273 3.0 9.0 0.00 0.00 0.00 50 1010.9
20260508141605 60 267 2.0 9.0 0.00 0.00 0.00 48 1011.0
20260508141053 60 325 3.0 9.0 0.00 0.00 0.00 52 1011.0
20260508140557 60 338 3.0 8.0 0.00 0.00 0.00 54 1010.9
20260508140059 59 254 2.0 8.0 0.00 0.00 0.00 53 1010.9
20260508135554 59 275 3.0 10.0 0.00 0.00 0.00 56 1011.0
20260508135057 59 292 3.0 10.0 0.00 0.00 0.00 58 1010.9
20260508134556 57 329 2.0 9.0 0.00 0.00 0.00 55 1010.9
20260508134056 57 240 1.0 11.0 0.00 0.00 0.00 60 1010.9
20260508133557 59 249 4.0 11.0 0.00 0.00 0.00 56 1011.0
20260508133057 59 298 2.0 10.0 0.00 0.00 0.00 59 1011.2
20260508132554 58 299 2.0 10.0 0.00 0.00 0.00 60 1011.3
20260508132057 58 266 2.0 8.0 0.00 0.00 0.00 61 1011.3
20260508131607 57 326 2.0 8.0 0.00 0.00 0.00 60 1011.4
20260508131054 57 231 3.0 8.0 0.00 0.00 0.00 59 1011.4
20260508130559 57 293 2.0 7.0 0.00 0.00 0.00 61 1011.4
20260508130057 56 292 2.0 7.0 0.00 0.00 0.00 60 1011.4
20260508125558 56 238 1.0 7.0 0.00 0.00 0.00 63 1011.4
20260508125055 56 229 3.0 7.0 0.00 0.00 0.00 61 1011.3
20260508124559 56 257 2.0 9.0 0.00 0.00 0.00 62 1011.4
20260508124057 55 284 2.0 9.0 0.00 0.00 0.00 62 1011.3
20260508123558 55 262 2.0 8.0 0.00 0.00 0.00 63 1011.3
20260508123115 55 0 2.0 8.0 0.00 0.00 0.00 63 1011.2
20260508122556 53 288 1.0 8.0 0.00 0.00 0.00 66 1011.2
20260508122056 53 0 2.0 10.0 0.00 0.00 0.00 65 1011.2
20260508121608 53 306 2.0 10.0 0.00 0.00 0.00 68 1011.2
20260508121054 53 0 3.0 10.0 0.00 0.00 0.00 66 1011.3
20260508120556 53 360 5.0 10.0 0.00 0.00 0.00 69 1011.4
20260508120110 52 297 3.0 7.0 0.00 0.00 0.00 70 1011.3
20260508115554 52 299 1.0 7.0 0.00 0.00 0.00 70 1011.4
20260508115056 51 274 1.0 7.0 0.00 0.00 0.00 69 1011.4
20260508114602 51 289 2.0 7.0 0.00 0.00 0.00 71 1011.4
20260508114058 51 0 1.0 6.0 0.00 0.00 0.00 73 1011.4
20260508113558 51 281 2.0 6.0 0.00 0.00 0.00 72 1011.2
20260508113110 50 271 2.0 6.0 0.00 0.00 0.00 73 1011.2
20260508112557 50 292 2.0 4.0 0.00 0.00 0.00 73 1011.2
20260508112057 49 299 1.0 4.0 0.00 0.00 0.00 75 1011.2
20260508111556 48 296 2.0 4.0 0.00 0.00 0.00 76 1011.2
20260508111058 48 296 1.0 4.0 0.00 0.00 0.00 79 1011.1
20260508110557 47 0 0.0 0.0 0.00 0.00 0.00 80 1011.2
20260508110108 46 0 0.0 0.0 0.00 0.00 0.00 83 1011.2
20260508105557 45 0 0.0 0.0 0.00 0.00 0.00 83 1011.2
20260508105056 45 0 0.0 2.0 0.00 0.00 0.00 82 1011.3
20260508104558 45 0 0.0 4.0 0.00 0.00 0.00 82 1011.1
20260508104056 45 0 0.0 4.0 0.00 0.00 0.00 82 1010.9
20260508103559 45 292 1.0 4.0 0.00 0.00 0.00 82 1010.9
20260508103107 45 0 0.0 4.0 0.00 0.00 0.00 81 1010.8
20260508102557 45 281 2.0 0.0 0.00 0.00 0.00 81 1010.8
20260508102057 46 0.0 0.0 0.00 0.00 0.00 81 1010.7
20260508101558 46 0.0 0.0 0.00 0.00 0.00 80 1010.6
20260508101057 46 0.0 0.0 0.00 0.00 0.00 80 1010.7
20260508100556 46 0.0 0.0 0.00 0.00 0.00 80 1010.7
20260508100056 46 0.0 0.0 0.00 0.00 0.00 80 1010.7
20260508095559 46 0.0 0.0 0.00 0.02 0.00 80 1010.5
20260508095057 46 0.0 0.0 0.00 0.02 0.00 80 1010.5
20260508094555 46 0.0 0.0 0.00 0.02 0.00 79 1010.3
20260508094056 46 0.0 0.0 0.00 0.02 0.00 79 1010.1
20260508093556 46 0.0 0.0 0.00 0.02 0.00 78 1010.1
20260508093105 47 0.0 0.0 0.00 0.02 0.00 78 1010.1
20260508092556 47 0.0 0.0 0.00 0.02 0.00 78 1010.0
20260508092056 46 0.0 0.0 0.00 0.02 0.00 78 1010.2
20260508091557 47 0.0 0.0 0.00 0.02 0.00 78 1010.2
20260508091056 46 0.0 0.0 0.00 0.02 0.00 78 1010.2
20260508090556 46 0.0 0.0 0.00 0.02 0.00 78 1010.3
20260508090113 46 0.0 0.0 0.00 0.02 0.00 78 1010.3
20260508085556 46 0.0 0.0 0.00 0.07 0.00 79 1010.3
20260508085055 46 0.0 0.0 0.00 0.07 0.00 79 1010.3
20260508084559 46 0.0 0.0 0.00 0.07 0.00 79 1010.2
20260508084059 46 0.0 0.0 0.00 0.07 0.00 78 1010.2
20260508083557 46 0.0 0.0 0.00 0.07 0.00 78 1010.1
20260508083100 46 0.0 0.0 0.00 0.07 0.00 78 1010.1
20260508082556 47 0.0 0.0 0.00 0.07 0.00 77 1010.3
20260508082056 47 0.0 0.0 0.00 0.07 0.00 76 1010.2
20260508081601 47 0.0 0.0 0.00 0.07 0.00 75 1010.2
20260508081054 47 0.0 0.0 0.00 0.07 0.00 74 1010.2
20260508080556 47 0.0 0.0 0.00 0.07 0.00 74 1010.2
20260508080057 47 0.0 0.0 0.00 0.07 0.00 74 1010.3
20260508075557 47 0.0 0.0 0.00 0.11 0.00 74 1010.3
20260508075056 47 0.0 0.0 0.00 0.11 0.00 74 1010.2
20260508074557 47 0.0 0.0 0.00 0.11 0.00 74 1010.3
20260508074058 47 0.0 0.0 0.00 0.11 0.00 73 1010.2
20260508073554 47 0.0 0.0 0.00 0.11 0.00 73 1010.2
20260508073055 47 0.0 0.0 0.00 0.11 0.00 72 1010.2
20260508072556 47 0.0 0.0 0.00 0.11 0.00 72 1010.3
20260508072057 47 0.0 0.0 0.00 0.11 0.00 72 1010.3
20260508071604 47 0.0 0.0 0.00 0.11 0.00 72 1010.4
20260508071053 48 0.0 0.0 0.00 0.11 0.00 72 1010.3
20260508070600 48 0.0 0.0 0.00 0.11 0.00 72 1010.2
20260508070056 48 0.0 0.0 0.00 0.11 0.00 70 1010.3
20260508065555 48 0.0 0.0 0.00 0.24 0.00 68 1010.3
20260508065054 48 0.0 0.0 0.00 0.24 0.00 66 1010.1
20260508064602 47 0.0 0.0 0.00 0.24 0.00 64 1009.8
20260508064057 47 0.0 0.0 0.00 0.24 0.00 64 1009.5
20260508063557 47 0.0 0.0 0.00 0.24 0.00 65 1009.3
20260508063104 47 0.0 0.0 0.00 0.24 0.00 65 1009.2
20260508062555 47 0.0 0.0 0.00 0.24 0.00 64 1009.1
20260508062053 47 0.0 0.0 0.00 0.24 0.00 62 1009.0
20260508061558 48 0.0 0.0 0.00 0.24 0.00 61 1008.8
20260508061057 48 0.0 0.0 0.00 0.24 0.00 62 1008.9
20260508060558 47 0.0 0.0 0.00 0.24 0.00 65 1009.0
20260508060055 47 0.0 0.0 0.00 0.24 0.00 66 1009.0
20260508055557 47 0.0 0.0 0.00 0.24 0.00 66 1008.9
20260508055056 47 0.0 0.0 0.00 0.24 0.00 66 1008.8
20260508054555 46 0.0 0.0 0.00 0.24 0.00 66 1008.7
20260508054055 46 0.0 0.0 0.00 0.24 0.00 68 1008.5
20260508053557 46 0.0 0.0 0.00 0.24 0.00 70 1008.7
20260508053105 45 0.0 0.0 0.00 0.24 0.00 72 1008.7
20260508052556 45 0.0 0.0 0.00 0.24 0.00 74 1008.7
20260508052101 45 0.0 0.0 0.00 0.24 0.00 75 1008.6
20260508051557 44 0.0 0.0 0.00 0.24 0.00 75 1008.7
20260508051054 44 0.0 0.0 0.00 0.24 0.00 74 1008.6
20260508050557 44 0.0 0.0 0.00 0.24 0.00 73 1008.6
20260508045557 45 0.0 0.0 0.00 0.24 0.00 72 1008.5
20260508045055 45 0.0 0.0 0.00 0.24 0.00 71 1008.6
20260508044556 45 0.0 0.0 0.00 0.24 0.00 71 1008.6
20260508044101 45 0.0 0.0 0.00 0.24 0.00 71 1008.6
20260508043558 45 0.0 0.0 0.00 0.24 0.00 71 1008.8
20260508043104 46 0.0 0.0 0.00 0.24 0.00 71 1008.8
20260508042559 46 0.0 0.0 0.00 0.24 0.00 70 1008.8
20260508042059 46 0.0 0.0 0.00 0.24 0.00 69 1008.8
20260508041601 47 0.0 0.0 0.00 0.24 0.00 69 1008.8
20260508041059 47 0.0 0.0 0.00 0.24 0.00 69 1008.9
20260508040559 47 0.0 0.0 0.00 0.24 0.00 69 1008.9
20260508040059 46 0.0 0.0 0.00 0.24 0.00 70 1009.0
20260508035600 46 0.0 0.0 0.00 0.24 0.24 70 1009.0
20260508035059 46 0.0 0.0 0.00 0.24 0.24 70 1008.9
20260508034612 46 0.0 0.0 0.00 0.24 0.24 70 1008.9
20260508034058 46 0.0 0.0 0.00 0.24 0.24 71 1009.0
20260508033559 46 0.0 0.0 0.00 0.24 0.24 72 1009.0
20260508033056 46 0.0 0.0 0.00 0.24 0.24 72 1009.0
20260508032559 46 0.0 0.0 0.00 0.24 0.24 72 1008.9
20260508032058 46 0.0 0.0 0.00 0.24 0.24 72 1009.0
20260508031556 46 0.0 0.0 0.00 0.24 0.24 72 1009.0
20260508031059 46 0.0 0.0 0.00 0.24 0.24 72 1009.1
20260508030558 47 0.0 0.0 0.00 0.24 0.24 71 1009.0
20260508030059 47 0.0 0.0 0.00 0.24 0.24 71 1009.1
20260508025558 47 0.0 0.0 0.00 0.28 0.24 70 1009.1
20260508025058 47 0.0 0.0 0.00 0.28 0.24 70 1009.1
20260508024556 47 0.0 0.0 0.00 0.28 0.24 70 1009.0
20260508024059 47 0.0 0.0 0.00 0.28 0.24 71 1009.1
20260508023559 47 0.0 0.0 0.00 0.28 0.24 71 1009.0
20260508023058 47 0.0 0.0 0.00 0.28 0.24 72 1009.0
20260508022559 47 0.0 0.0 0.00 0.28 0.24 72 1009.0
20260508022059 47 0.0 0.0 0.00 0.28 0.24 72 1009.0
20260508021601 47 0.0 0.0 0.00 0.28 0.24 72 1009.0
20260508021058 47 0.0 0.0 0.00 0.28 0.24 71 1008.8
20260508020558 47 0.0 0.0 0.00 0.28 0.24 71 1009.0
20260508020105 48 0.0 0.0 0.00 0.28 0.24 71 1008.9
20260508015558 48 0.0 0.0 0.00 0.28 0.24 71 1009.0
20260508015058 48 0.0 0.0 0.00 0.28 0.24 71 1008.8
20260508014558 48 0.0 0.0 0.00 0.28 0.24 70 1008.8
20260508014057 48 0.0 0.0 0.00 0.28 0.24 69 1008.8
20260508013557 48 0.0 0.0 0.00 0.28 0.24 69 1008.7
20260508013101 49 0.0 0.0 0.00 0.28 0.24 69 1008.6